Header for Extended Forecast Station List Page

Search by: ID | Name | Date | Parm | Value | Avg | % Avg
Sort by: ID | Name | Date | Parm | Value | Avg | % Avg

Enter search or view all records.

Click on id for station plot
#IDNameDateParmValueAvg% Avg
0ABOM8CLARK FORK-ABOVE MISSOULA11-22-2021DISCHARGE (KAF)331328101
1AFRI1SNAKE-AMERICAN FALLS RESERVOIR11-22-2021INFLOW (KAF)1117119693
2ALFW1PEND OREILLE-ALBENI FALLS DAM11-22-2021INFLOW (KAF)3493399487
3ALPW4SNAKE-NEAR ALPINE11-22-2021DISCHARGE (KAF)30737582
4ANAW1SNAKE-NEAR ANATONE11-22-2021DISCHARGE (KAF)4212530479
5ANTI1HENRYS FORK-AT ST. ANTHONY11-22-2021DISCHARGE (KAF)31537883
6ARAI1SF BOISE-ANDERSON RANCH DAM11-22-2021INFLOW (KAF)697987
7ARDW1ENTIAT-NEAR ARDENVOIR11-22-2021DISCHARGE (KAF)4525178
8BELM8CLARK FORK-BELOW MISSOULA11-22-2021DISCHARGE (KAF)52054296
9BERO3MALHEUR-AGENCY VALLEY DAM11-22-2021INFLOW (KAF)132165
10BFEI1KOOTENAI-AT BONNERS FERRY11-22-2021STAGE (FT)MMM
11BFTI1SNAKE-NEAR BLACKFOOT11-22-2021DISCHARGE (KAF)47257982
12BIGI1BOISE-AT GLENWOOD BRIDGE11-22-2021DISCHARGE (KAF)11564179
13BITM8BITTERROOT-NEAR MISSOULA11-22-2021DISCHARGE (KAF)18820592
14BONM8BLACKFOOT-NEAR BONNER11-22-2021DISCHARGE (KAF)157136115
15BONO3COLUMBIA-BONNEVILLE DAM11-22-2021INFLOW (KAF)369053775898
16BRNI1SNAKE-BROWNLEE DAM11-22-2021INFLOW (KAF)2966313195
17BUDW1BUMPING-BUMPING LAKE DAM11-22-2021INFLOW (KAF)4540113
18BULO3BULLY CREEK-BULLY CREEK DAM11-22-2021INFLOW (KAF)284682
19CABI1CLARK FORK-CABINET GORGE DAM11-22-2021INFLOW (KAF)3207354890
20CFMM8FLATHEAD-AT COLUMBIA FALLS11-22-2021DISCHARGE (KAF)1040944110
21CHDW1CHELAN-LAKE CHELAN DAM11-22-2021INFLOW (KAF)395197200
22CHEI1FALL RIVER-NEAR CHESTER11-22-2021DISCHARGE (KAF)10111489
23CHJW1COLUMBIA-CHIEF JOSEPH DAM11-22-2021INFLOW (KAF)2547823785107
24CIBW1COLUMBIA-AT INTL BOUNDARY11-22-2021DISCHARGE (KAF)2210619958111
25CLFW1NACHES-NEAR CLIFFDEL11-22-2021DISCHARGE (KAF)12512898
26CLUW1CLE ELUM-CLE ELUM LAKE11-22-2021INFLOW (KAF)149115130
27COEI1COEUR D ALENE-COEUR D ALENE LAKE11-22-2021INFLOW (KAF)751110068
28CSDI1NF PAYETTE-CASCADE DAM11-22-2021INFLOW (KAF)779978
29DEDI1DEADWOOD-NEAR LOWMAN11-22-2021INFLOW (KAF)141875
30DLGM8CLARK FORK-AT DEER LODGE11-22-2021DISCHARGE (KAF)465190
31DRMM8CLARK FORK-NR DRUMMOND11-22-2021DISCHARGE (KAF)10912488
32DWRI1NF CLEARWATER-DWORSHAK DAM11-22-2021INFLOW (KAF)48073565
33EASW1YAKIMA-AT EASTON11-22-2021DISCHARGE (KAF)727991
34EMMI1PAYETTE-NEAR EMMETT11-22-2021DISCHARGE (KAF)31533394
35FCFM8NF FLATHEAD-NEAR COLUMBIA FALLS11-22-2021DISCHARGE (KAF)341174196
36GCDW1COLUMBIA-GRAND COULEE DAM11-22-2021INFLOW (KAF)2327221578108
37GIBO3UMATILLA-NEAR GIBBON11-22-2021DISCHARGE (KAF)445186
38HALI1BIG WOOD-AT HAILEY11-22-2021DISCHARGE (KAF)253768
39HEII1SNAKE-NEAR HEISE11-22-2021DISCHARGE (KAF)35137893
40HHWM8SF FLATHEAD-HUNGRY HORSE DAM11-22-2021INFLOW (KAF)258238108
41HODO3HOOD-NEAR TUCKER BRIDGE11-22-2021DISCHARGE (KAF)290244119
42HOPI1PEND OREILLE-PEND OREILLE LAKE NR HOPE11-22-2021LAKE ELEVATION (FT)MMM
43HOTI1BRUNEAU-NEAR HOT SPRINGS11-22-2021DISCHARGE (KAF)193062
44HWRI1BIG LOST-AT HOWELL RANCH NEAR CHILLY11-22-2021DISCHARGE (KAF)151885
45IHDW1SNAKE-ICE HARBOR DAM11-22-2021INFLOW (KAF)5535727076
46IPDI1HENRYS FORK-ISLAND PARK DAM11-22-2021INFLOW (KAF)7810575
47JDAO3COLUMBIA-JOHN DAY DAM11-22-2021INFLOW (KAF)351833548199
48JKSW4SNAKE-NEAR JACKSON11-22-2021DISCHARGE (KAF)24531478
49JLKW4SNAKE-JACKSON LAKE AT DAM11-22-2021INFLOW (KAF)9311581
50KADW1KACHESS-KACHESS DAM11-22-2021INFLOW (KAF)5951117
51KEDW1YAKIMA-KEECHELUS LAKE11-22-2021INFLOW (KAF)6053114
52KERM8FLATHEAD-SELI’Š KSANKA QLISPE’ DAM11-22-2021INFLOW (KAF)1186139385
53KIOW1YAKIMA-AT KIONA11-22-2021DISCHARGE (KAF)73480791
54LAUW1KETTLE-AT LAURIER11-22-2021DISCHARGE (KAF)11413783
55LEOI1KOOTENAI-AT LEONIA11-22-2021DISCHARGE (KAF)31422481127
56LGDW1SNAKE-LOWER GRANITE DAM11-22-2021INFLOW (KAF)5283709075
57LGSW1SNAKE-LITTLE GOOSE DAM11-22-2021INFLOW (KAF)5283712474
58LLKW1SPOKANE-AT LONGLAKE11-22-2021INFLOW (KAF)1016147869
59LMNW1SNAKE-LOWER MONUMENTAL DAM11-22-2021INFLOW (KAF)5535724276
60LUCI1BOISE-LUCKY PEAK DAM11-22-2021INFLOW (KAF)13916485
61LWRI1LITTLE WOOD-LITTLE WOOD DAM11-22-2021INFLOW (KAF)1614115
62LYDM8KOOTENAI-LIBBY DAM11-22-2021INFLOW (KAF)1090836130
63MACI1BIG LOST-MACKAY RESERVOIR NEAR MACKAY11-22-2021INFLOW (KAF)283973
64MAGI1BIG WOOD-MAGIC DAM11-22-2021INFLOW (KAF)112542
65MCDW1COLUMBIA-MCNARY DAM11-22-2021INFLOW (KAF)337273397699
66MILI1SNAKE-AT MILNER11-22-2021DISCHARGE (KAF)M55M
67MODO3DESCHUTES-AT MOODY NR BIGGS11-22-2021DISCHARGE (KAF)14241399102
68MONO3NF JOHN DAY-AT MONUMENT11-22-2021DISCHARGE (KAF)10920254
69MYKO3MCKAY CREEK-NEAR PILOT ROCK11-22-2021DISCHARGE (KAF)3731120
70NACW1NACHES-NEAR NACHES11-22-2021DISCHARGE (KAF)13017276
71NOXM8CLARK FORK-NOXON RAPIDS DAM11-22-2021INFLOW (KAF)2941311295
72ORFI1CLEARWATER-AT OROFINO11-22-2021DISCHARGE (KAF)53891959
73OWYO3OWYHEE-OWYHEE DAM11-22-2021INFLOW (KAF)230136169
74PARI1BOISE-NEAR PARMA11-22-2021DISCHARGE (KAF)273204134
75PARW1YAKIMA-NEAR PARKER11-22-2021DISCHARGE (KAF)54156596
76PATW1METHOW-NEAR PATEROS11-22-2021DISCHARGE (KAF)142105136
77PDTO3UMATILLA-AT PENDLETON11-22-2021DISCHARGE (KAF)11413088
78PESW1WENATCHEE-AT PESHASTIN11-22-2021DISCHARGE (KAF)508334152
79PIHI1PORTNEUF-AT POCATELLO11-22-2021DISCHARGE (KAF)385370
80PITW1KLICKITAT-NEAR PITT11-22-2021DISCHARGE (KAF)448357126
81PLDI1SF SNAKE-PALISADES DAM11-22-2021INFLOW (KAF)47158081
82PRTI1PRIEST-NEAR PRIEST RIVER11-22-2021DISCHARGE (KAF)16122970
83PRWW1COLUMBIA-PRIEST RAPIDS DAM11-22-2021INFLOW (KAF)2739025508107
84RCCM8ROCK CREEK-NEAR CLINTON11-22-2021DISCHARGE (KAF)5245115
85REXI1HENRYS FORK-AT REXBURG11-22-2021DISCHARGE (KAF)37743587
86RIDI1WILLOW CREEK-RIRIE DAM11-22-2021INFLOW (KAF)81365
87RILW1TIETON-RIMROCK LAKE NEAR RIMROCK11-22-2021INFLOW (KAF)8075106
88RRHW1COLUMBIA-ROCKY REACH DAM11-22-2021INFLOW (KAF)2683424822108
89SATI1ST MARIES-NEAR SANTA11-22-2021DISCHARGE (KAF)216334
90SERO3JOHN DAY-AT SERVICE CK11-22-2021DISCHARGE (KAF)18832258
91SHYI1SNAKE-NEAR SHELLEY11-22-2021DISCHARGE (KAF)54467681
92SIFI1SNAKE-AB EAGLE ROCK NR IDAHO FALLS11-22-2021DISCHARGE (KAF)56467184
93SJMI1ST JOE-AT ST MARIES11-22-2021STAGE (FT)MMM
94SNAI1SNAKE-AT BLACKFOOT11-22-2021DISCHARGE (KAF)46959179
95SPDI1CLEARWATER-AT SPALDING11-22-2021DISCHARGE (KAF)1071173062
96SPOW1SPOKANE-AT SPOKANE11-22-2021DISCHARGE (KAF)748122861
97SRGM8CLARK FORK-AT ST REGIS11-22-2021DISCHARGE (KAF)63772588
98STRM8ST. REGIS-NEAR ST. REGIS11-22-2021DISCHARGE (KAF)234352
99SWAI1SNAKE-BELOW SWAN FALLS11-22-2021DISCHARGE (KAF)1710187491
100TCHW1WALLA WALLA-NEAR TOUCHET11-22-2021DISCHARGE (KAF)13118670
101TDAO3COLUMBIA-THE DALLES DAM11-22-2021INFLOW (KAF)358563607399
102TEAI1TETON-NEAR ST. ANTHONY11-22-2021DISCHARGE (KAF)769679
103TNAW1TEANAWAY-BELOW FORKS11-22-2021DISCHARGE (KAF)6555118
104TONW1OKANOGAN-NEAR TONASKET11-22-2021DISCHARGE (KAF)460305151
105TRYO3GRANDE RONDE-TROY11-22-2021DISCHARGE (KAF)28745363
106UMAO3UMATILLA-NEAR UMATILLA11-22-2021DISCHARGE (KAF)129122105
107UMTW1YAKIMA-AT UMTANUM11-22-2021DISCHARGE (KAF)30032891
108UNDW1WHITE SALMON-NEAR UNDERWOOD11-22-2021DISCHARGE (KAF)309276112
109WANW1COLUMBIA-WANAPUM DAM11-22-2021INFLOW (KAF)2740125433108
110WEII1SNAKE-AT WEISER11-22-2021DISCHARGE (KAF)2729291394
111WELW1COLUMBIA-WELLS DAM11-22-2021INFLOW (KAF)2606324415107
112WGCM8MF FLATHEAD-NEAR WEST GLACIER11-22-2021DISCHARGE (KAF)215155139
113WHBI1SALMON-AT WHITEBIRD11-22-2021DISCHARGE (KAF)920103989
114WRMO3MALHEUR-WARM SPRINGS DAM11-22-2021INFLOW (KAF)253571
115WSRI1WEISER-NEAR WEISER11-22-2021DISCHARGE (KAF)15816695